KD5MWL-2 Weather Reports


time (UTC)temp
C
wind
direction
speed
KPH
gust
KPH
rain 1hr
cm
rain 24hr
cm
rain mn
cm
humidity
%
barometer
mb
20260510043503 20 0 0.0 0.0 0.00 0.84 0.84 82 1012.9
20260510043003 20 0 0.0 0.0 0.00 0.84 0.84 82 1012.8
20260510042503 20 0 0.0 0.0 0.00 0.84 0.84 82 1012.9
20260510042003 20 0 0.0 0.0 0.00 0.84 0.84 82 1012.9
20260510041503 20 0 0.0 0.0 0.00 0.84 0.84 82 1012.9
20260510041003 20 0 0.0 0.0 0.00 0.84 0.84 81 1012.9
20260510040524 20 0 0.0 0.0 0.00 0.84 0.84 81 1012.9
20260510040025 21 0 0.0 0.0 0.00 0.84 0.84 82 1012.8
20260510035503 21 0 0.0 0.0 0.00 0.84 0.84 81 1012.8
20260510035024 21 0 0.0 0.0 0.00 0.84 0.84 81 1012.9
20260510034503 21 0 0.0 0.0 0.00 0.84 0.84 81 1013.0
20260510034003 21 0 0.0 0.0 0.00 0.84 0.84 81 1013.1
20260510033503 21 0 0.0 0.0 0.00 0.84 0.84 81 1013.2
20260510033003 21 0 0.0 0.0 0.00 0.84 0.84 81 1013.3
20260510032503 21 0 0.0 0.0 0.00 0.84 0.84 81 1013.3
20260510032003 21 0 0.0 0.0 0.00 0.84 0.84 81 1013.3
20260510031503 21 0 0.0 0.0 0.00 0.84 0.84 81 1013.2
20260510031003 21 0 0.0 0.0 0.00 0.84 0.84 81 1012.9
20260510030503 22 0 0.0 0.0 0.00 0.84 0.84 81 1013.0
20260510030003 22 0 0.0 0.0 0.00 0.84 0.84 81 1013.0
20260510025503 22 0 0.0 0.0 0.00 0.84 0.84 81 1012.9
20260510025003 22 179 0.0 4.8 0.00 0.84 0.84 81 1012.9
20260510024525 22 202 1.6 4.8 0.00 0.84 0.84 81 1012.9
20260510024003 22 206 1.6 11.3 0.00 0.84 0.84 81 1012.9
20260510023503 22 197 3.2 11.3 0.00 0.84 0.84 81 1012.9
20260510023003 22 191 3.2 6.4 0.00 0.84 0.84 81 1012.9
20260510022503 22 188 3.2 8.0 0.00 0.84 0.84 81 1012.8
20260510022003 22 188 3.2 8.0 0.00 0.84 0.84 81 1012.7
20260510021503 22 192 1.6 6.4 0.00 0.84 0.84 81 1012.7
20260510021003 22 195 3.2 6.4 0.00 0.84 0.84 81 1012.8
20260510020503 22 189 3.2 9.7 0.00 0.84 0.84 80 1012.7
20260510020004 22 192 3.2 9.7 0.00 0.84 0.84 80 1012.5
20260510015504 22 192 3.2 9.7 0.00 0.84 0.84 80 1012.4
20260510015003 22 190 1.6 6.4 0.00 0.84 0.84 80 1012.4
20260510014503 22 211 1.6 9.7 0.00 0.84 0.84 79 1012.3
20260510014024 22 205 1.6 9.7 0.00 0.84 0.84 79 1012.3
20260510013503 22 197 1.6 4.8 0.00 0.84 0.84 79 1012.3
20260510013003 22 208 1.6 6.4 0.00 0.84 0.84 79 1012.2
20260510012504 22 212 1.6 6.4 0.00 0.84 0.84 79 1012.1
20260510012024 22 213 1.6 4.8 0.00 0.84 0.84 78 1012.1
20260510011503 23 199 1.6 4.8 0.00 0.84 0.84 78 1012.0
20260510011003 23 192 1.6 4.8 0.00 0.84 0.84 78 1011.9
20260510010504 23 230 0.0 3.2 0.00 0.84 0.84 78 1011.8
20260510010003 23 231 0.0 4.8 0.00 0.84 0.84 78 1011.8
20260510005503 23 229 1.6 4.8 0.00 0.84 0.84 78 1011.8
20260510005003 23 221 1.6 4.8 0.00 0.84 0.84 77 1011.8
20260510004503 23 212 1.6 4.8 0.00 0.84 0.84 77 1011.6
20260510004024 23 199 1.6 4.8 0.00 0.84 0.84 77 1011.4
20260510003504 23 186 1.6 4.8 0.00 0.84 0.84 77 1011.4
20260510003004 23 176 1.6 4.8 0.00 0.84 0.84 76 1011.5
20260510002503 23 171 0.0 3.2 0.00 0.84 0.84 76 1011.3
20260510002003 23 180 1.6 4.8 0.00 0.84 0.84 76 1011.3
20260510001503 23 188 3.2 11.3 0.00 0.84 0.84 76 1011.3
20260510001003 24 203 4.8 11.3 0.00 0.84 0.84 76 1011.3
20260510000503 24 208 3.2 11.3 0.00 0.84 0.84 75 1011.3
20260510000024 24 212 3.2 9.7 0.00 0.84 0.84 75 1011.3
20260509235503 24 204 3.2 8.0 0.00 0.84 0.84 75 1011.2
20260509235003 24 183 3.2 9.7 0.00 0.84 0.84 75 1011.1
20260509234503 24 197 4.8 12.9 0.00 0.84 0.84 74 1010.9
20260509234003 25 196 6.4 19.3 0.00 0.84 0.84 74 1010.9
20260509233524 25 203 6.4 20.9 0.00 0.84 0.84 74 1011.0
20260509233024 25 206 6.4 20.9 0.00 0.84 0.84 73 1010.9
20260509232503 25 199 6.4 16.1 0.00 0.84 0.84 73 1010.9
20260509232003 25 203 6.4 17.7 0.00 0.84 0.84 73 1010.9
20260509231503 25 206 6.4 19.3 0.00 0.84 0.84 73 1010.8
20260509231003 25 208 6.4 19.3 0.00 0.84 0.84 73 1010.8
20260509230503 25 200 6.4 17.7 0.00 0.84 0.84 73 1010.8
20260509230003 25 194 8.0 17.7 0.00 0.84 0.84 73 1010.7
20260509225524 25 202 6.4 17.7 0.00 0.84 0.84 73 1010.8
20260509225003 25 200 4.8 14.5 0.00 0.84 0.84 73 1010.8
20260509224503 25 197 4.8 16.1 0.00 0.84 0.84 73 1010.8
20260509224003 26 206 4.8 16.1 0.00 0.84 0.84 72 1010.8
20260509223503 26 198 4.8 17.7 0.00 0.84 0.84 72 1010.8
20260509223003 26 196 6.4 17.7 0.00 0.84 0.84 71 1010.8
20260509222503 26 192 6.4 16.1 0.00 0.84 0.84 71 1010.8
20260509222003 26 179 4.8 16.1 0.00 0.84 0.84 72 1010.8
20260509221524 26 175 3.2 11.3 0.00 0.84 0.84 72 1010.6
20260509221024 26 180 4.8 12.9 0.00 0.84 0.84 72 1010.6
20260509220503 26 183 4.8 12.9 0.00 0.84 0.84 72 1010.4
20260509220004 26 159 3.2 12.9 0.00 0.84 0.84 73 1010.4
20260509215524 26 165 3.2 11.3 0.00 0.84 0.84 74 1010.4
20260509215003 26 167 4.8 16.1 0.00 0.84 0.84 73 1010.4
20260509214503 26 156 4.8 16.1 0.00 0.84 0.84 73 1010.5
20260509214003 25 155 6.4 19.3 0.00 0.84 0.84 74 1010.5
20260509213503 25 166 6.4 19.3 0.00 0.84 0.84 74 1010.5
20260509213003 25 180 6.4 16.1 0.00 0.84 0.84 75 1010.6
20260509212503 25 165 6.4 16.1 0.00 0.84 0.84 76 1010.7
20260509212003 25 139 6.4 16.1 0.00 0.84 0.84 76 1010.7
20260509211503 25 135 4.8 16.1 0.00 0.84 0.84 77 1010.8
20260509211003 25 140 3.2 11.3 0.00 0.84 0.84 77 1010.8
20260509210503 25 158 1.6 8.0 0.00 0.84 0.84 77 1010.8
20260509210024 25 158 1.6 8.0 0.00 0.84 0.84 76 1010.8
20260509205503 25 156 3.2 9.7 0.00 0.84 0.84 76 1010.9
20260509205024 25 166 3.2 9.7 0.00 0.84 0.84 76 1010.9
20260509204524 25 170 3.2 9.7 0.00 0.84 0.84 75 1011.0
20260509204003 25 176 4.8 12.9 0.00 0.84 0.84 75 1011.0
20260509203503 25 198 4.8 14.5 0.00 0.84 0.84 75 1011.1
20260509203003 25 204 6.4 16.1 0.00 0.84 0.84 76 1011.1
20260509202503 25 185 6.4 16.1 0.00 0.84 0.84 76 1011.0
20260509202003 25 145 3.2 9.7 0.00 0.84 0.84 77 1011.1
20260509201503 25 172 4.8 11.3 0.00 0.84 0.84 77 1011.2
20260509201003 25 196 3.2 11.3 0.00 0.84 0.84 77 1011.2
20260509200503 24 201 4.8 19.3 0.00 0.84 0.84 77 1011.3
20260509200003 24 197 4.8 19.3 0.00 0.84 0.84 77 1011.1
20260509195503 24 181 4.8 11.3 0.00 0.84 0.84 76 1011.0
20260509195003 24 172 4.8 14.5 0.00 0.84 0.84 76 1011.1
20260509194503 24 169 3.2 14.5 0.00 0.84 0.84 76 1011.3
20260509194003 24 161 3.2 9.7 0.00 0.84 0.84 76 1011.3
20260509193525 24 177 3.2 9.7 0.00 0.84 0.84 76 1011.3
20260509193003 24 194 3.2 9.7 0.00 0.84 0.84 76 1011.3
20260509192525 24 191 4.8 11.3 0.00 0.84 0.84 76 1011.3
20260509192003 24 199 4.8 11.3 0.00 0.84 0.84 77 1011.3
20260509191503 24 199 4.8 11.3 0.00 0.84 0.84 77 1011.3
20260509191003 24 200 4.8 9.7 0.00 0.84 0.84 77 1011.3
20260509190503 24 199 4.8 9.7 0.00 0.84 0.84 78 1011.3
20260509190025 24 169 4.8 9.7 0.00 0.84 0.84 79 1011.3
20260509185503 23 191 6.4 11.3 0.00 0.84 0.84 79 1011.4
20260509185003 23 226 6.4 14.5 0.00 0.84 0.84 79 1011.4
20260509184503 23 206 4.8 14.5 0.00 0.84 0.84 79 1011.5
20260509184003 23 152 4.8 11.3 0.00 0.84 0.84 79 1011.4
20260509183503 23 164 4.8 11.3 0.00 0.84 0.84 78 1011.5
20260509183003 23 178 4.8 14.5 0.00 0.84 0.84 78 1011.4
20260509182503 23 180 4.8 14.5 0.00 0.84 0.84 77 1011.4
20260509182003 23 180 4.8 11.3 0.00 0.84 0.84 76 1011.6
20260509181524 23 177 4.8 11.3 0.00 0.84 0.84 75 1011.7
20260509181003 24 177 4.8 9.7 0.00 0.84 0.84 75 1011.7
20260509180503 24 179 3.2 9.7 0.00 0.84 0.84 75 1011.8
20260509180003 24 166 4.8 17.7 0.00 0.84 0.84 75 1011.8
20260509175503 25 155 4.8 17.7 0.00 0.84 0.84 75 1011.8
20260509175003 25 131 4.8 14.5 0.00 0.84 0.84 75 1011.9
20260509174503 25 133 4.8 8.0 0.00 0.84 0.84 75 1011.9
20260509174003 25 139 3.2 8.0 0.00 0.84 0.84 75 1012.0
20260509173503 25 117 3.2 8.0 0.00 0.84 0.84 75 1012.1
20260509173003 25 116 3.2 8.0 0.00 0.84 0.84 75 1012.1
20260509172503 25 124 3.2 8.0 0.00 0.84 0.84 75 1012.0
20260509172024 25 124 3.2 6.4 0.00 0.84 0.84 75 1012.2
20260509171503 25 133 3.2 6.4 0.00 0.84 0.84 75 1012.1
20260509171003 25 132 3.2 6.4 0.00 0.84 0.84 76 1012.2
20260509170503 25 108 3.2 6.4 0.00 0.84 0.84 76 1012.1
20260509170003 25 84 3.2 8.0 0.00 0.84 0.84 76 1012.2
20260509165503 25 78 3.2 9.7 0.00 0.84 0.84 76 1012.3
20260509165003 24 80 3.2 9.7 0.00 0.84 0.84 77 1012.3
20260509164524 24 74 3.2 9.7 0.00 0.84 0.84 78 1012.3
20260509164003 24 71 3.2 9.7 0.00 0.84 0.84 79 1012.3
20260509163503 24 111 1.6 6.4 0.00 0.84 0.84 80 1012.2
20260509163003 24 122 1.6 6.4 0.00 0.84 0.84 80 1012.1
20260509162503 23 111 1.6 6.4 0.00 0.84 0.84 81 1012.3
20260509162003 23 101 1.6 6.4 0.00 0.84 0.84 80 1012.3
20260509161503 23 99 1.6 6.4 0.00 0.84 0.84 81 1012.2
20260509161003 23 0 0.0 0.0 0.00 0.84 0.84 82 1012.1
20260509160503 23 348 0.0 3.2 0.00 0.84 0.84 82 1012.2
20260509160003 23 341 1.6 3.2 0.00 0.84 0.84 82 1012.2
20260509155524 23 344 1.6 4.8 0.00 0.84 0.84 82 1012.1
20260509155003 23 6 1.6 4.8 0.00 0.84 0.84 82 1012.0
20260509154524 23 46 1.6 4.8 0.00 0.84 0.84 84 1011.9
20260509154003 23 35 1.6 4.8 0.00 0.84 0.84 84 1011.9
20260509153503 23 60 1.6 4.8 0.00 0.84 0.84 85 1011.9
20260509153003 23 67 1.6 4.8 0.00 0.84 0.84 86 1011.8
20260509152503 23 61 1.6 4.8 0.00 0.84 0.84 87 1011.8
20260509152003 22 52 1.6 4.8 0.00 0.84 0.84 87 1011.8
20260509151503 22 304 0.0 4.8 0.00 0.84 0.84 87 1011.8
20260509151003 22 0 0.0 0.0 0.00 0.84 0.84 87 1011.8
20260509150503 22 185 0.0 3.2 0.00 0.84 0.84 88 1011.8
20260509150003 22 185 0.0 3.2 0.00 0.84 0.84 88 1011.8
20260509145503 22 184 0.0 3.2 0.00 0.84 0.84 88 1011.9
20260509145003 22 183 0.0 4.8 0.00 0.84 0.84 89 1012.0
20260509144503 22 180 1.6 4.8 0.00 0.84 0.84 89 1011.9
20260509144003 22 178 0.0 3.2 0.00 0.84 0.84 89 1011.9
20260509143503 21 174 0.0 1.6 0.00 0.84 0.84 89 1011.8
20260509143003 21 0 0.0 0.0 0.00 0.84 0.84 89 1011.8
20260509142504 21 0 0.0 0.0 0.00 0.84 0.84 89 1011.8
20260509142003 21 280 0.0 3.2 0.00 0.84 0.84 89 1011.5
20260509141503 21 235 1.6 8.0 0.00 0.84 0.84 89 1011.6
20260509141003 20 225 1.6 8.0 0.00 0.84 0.84 89 1011.7
20260509140524 20 246 0.0 4.8 0.00 0.84 0.84 89 1011.6
20260509140024 20 291 1.6 4.8 0.00 0.84 0.84 89 1011.4
20260509135503 20 262 1.6 4.8 0.00 0.84 0.84 89 1011.3
20260509135003 20 240 1.6 4.8 0.00 0.84 0.84 89 1011.5
20260509134503 20 232 1.6 8.0 0.00 0.84 0.84 89 1011.6
20260509134003 20 222 3.2 8.0 0.00 0.84 0.84 89 1011.7
20260509133503 20 217 3.2 8.0 0.00 0.84 0.84 89 1011.7
20260509133003 19 242 3.2 6.4 0.00 0.84 0.84 89 1011.7
20260509132503 19 246 3.2 6.4 0.00 0.84 0.84 89 1011.8
20260509132003 19 230 1.6 4.8 0.00 0.84 0.84 89 1011.9
20260509131503 19 206 1.6 8.0 0.00 0.84 0.84 89 1011.8
20260509131003 19 213 3.2 9.7 0.00 0.84 0.84 88 1011.8
20260509130503 18 215 4.8 9.7 0.00 0.84 0.84 88 1011.5
20260509130003 18 211 3.2 6.4 0.00 0.84 0.84 88 1011.5
20260509125503 18 215 1.6 6.4 0.00 0.84 0.84 88 1011.3
20260509125003 18 243 0.0 4.8 0.00 0.84 0.84 88 1011.3
20260509124503 18 303 1.6 4.8 0.00 0.84 0.84 88 1011.3
20260509124003 18 295 1.6 4.8 0.00 0.84 0.84 88 1011.3
20260509123503 18 212 1.6 6.4 0.00 0.84 0.84 88 1011.4
20260509123025 18 227 1.6 6.4 0.00 0.84 0.84 88 1011.5
20260509122503 18 283 0.0 3.2 0.00 0.84 0.84 88 1011.4
20260509122003 18 293 1.6 4.8 0.00 0.84 0.84 88 1011.3
20260509121503 18 297 1.6 6.4 0.00 0.84 0.84 88 1011.3
20260509121003 18 327 3.2 6.4 0.00 0.84 0.84 88 1011.3
20260509120503 18 336 3.2 6.4 0.00 0.84 0.84 88 1011.3
20260509120024 18 328 1.6 6.4 0.00 0.84 0.84 88 1011.3
20260509115503 18 263 1.6 4.8 0.00 0.84 0.84 88 1011.4
20260509115003 18 272 1.6 6.4 0.00 0.84 0.84 88 1011.5
20260509114503 18 289 3.2 8.0 0.00 0.84 0.84 88 1011.3
20260509114006 18 291 3.2 8.0 0.00 0.84 0.84 88 1011.1
20260509113503 19 280 3.2 8.0 0.00 0.84 0.84 88 1010.8
20260509113003 19 278 4.8 11.3 0.00 0.84 0.84 88 1010.8
20260509112503 19 282 4.8 11.3 0.00 0.84 0.84 88 1010.7
20260509112003 19 278 3.2 11.3 0.00 0.84 0.84 88 1010.8
20260509111503 19 311 3.2 9.7 0.00 0.84 0.84 88 1010.8
20260509111003 19 336 3.2 9.7 0.00 0.84 0.84 88 1010.5
20260509110524 19 340 3.2 8.0 0.00 0.84 0.84 88 1010.3
20260509110024 19 299 4.8 11.3 0.00 0.84 0.84 88 1010.3
20260509105503 19 274 4.8 16.1 0.00 0.84 0.84 88 1010.8
20260509105003 19 264 4.8 16.1 0.00 0.84 0.84 88 1010.9
20260509104503 19 266 4.8 14.5 0.03 0.84 0.84 88 1011.1
20260509104003 19 274 3.2 14.5 0.03 0.84 0.84 88 1011.3
20260509103524 19 274 1.6 8.0 0.05 0.84 0.84 88 1011.3
20260509103024 19 280 3.2 8.0 0.05 0.84 0.84 88 1011.3
20260509102503 19 282 4.8 9.7 0.08 0.84 0.84 88 1011.3
20260509102003 19 271 4.8 11.3 0.10 0.84 0.84 88 1011.3
20260509101524 19 269 4.8 11.3 0.13 0.84 0.84 88 1010.8
20260509101003 19 292 6.4 19.3 0.13 0.84 0.84 88 1010.8
20260509100503 19 314 8.0 19.3 0.15 0.84 0.84 87 1010.8
20260509100004 19 7 8.0 16.1 0.18 0.84 0.84 87 1010.4
20260509095503 19 103 6.4 16.1 0.20 0.84 0.84 87 1008.9
20260509095003 19 127 6.4 19.3 0.20 0.84 0.84 87 1008.4
20260509094524 19 144 8.0 22.5 0.20 0.81 0.84 87 1008.4
20260509094003 19 136 9.7 22.5 0.20 0.81 0.81 87 1008.4
20260509093503 19 126 8.0 20.9 0.20 0.79 0.79 87 1008.4
20260509093003 19 125 8.0 16.1 0.20 0.79 0.79 87 1008.8
20260509092503 19 127 6.4 16.1 0.18 0.76 0.76 87 1008.7
20260509092003 19 129 4.8 9.7 0.18 0.74 0.74 87 1009.3
20260509091524 19 130 3.2 9.7 0.15 0.71 0.74 87 1009.7
20260509091024 19 150 1.6 8.0 0.15 0.71 0.71 87 1009.2
20260509090524 19 165 1.6 6.4 0.13 0.69 0.69 87 1009.8
20260509090003 19 167 1.6 6.4 0.10 0.66 0.66 86 1010.0
20260509085503 19 344 0.0 3.2 0.08 0.64 0.64 86 1010.2
20260509085003 19 360 0.0 3.2 0.08 0.64 0.64 86 1010.3
20260509084503 19 360 0.0 1.6 0.05 0.61 0.61 86 1010.3
20260509084003 19 13 0.0 3.2 0.05 0.61 0.61 86 1010.6
20260509083503 19 30 0.0 3.2 0.03 0.58 0.58 86 1010.8
20260509083003 19 45 0.0 3.2 0.03 0.58 0.58 86 1010.7
20260509082524 20 41 1.6 6.4 0.08 0.58 0.58 86 1010.3
20260509082003 20 34 1.6 6.4 0.53 0.56 0.56 86 1009.8
20260509081503 20 1 1.6 4.8 0.56 0.56 0.56 86 1009.9
20260509081003 20 357 3.2 6.4 0.56 0.56 0.56 86 1010.6
20260509080525 20 348 3.2 6.4 0.56 0.56 0.56 86 1010.5
20260509080003 20 307 1.6 6.4 0.56 0.56 0.56 85 1010.5
20260509075503 20 252 0.0 6.4 0.56 0.56 0.56 85 1010.7
20260509075003 20 212 1.6 4.8 0.56 0.56 0.56 85 1010.2
20260509074503 20 275 1.6 4.8 0.56 0.56 0.56 85 1009.7
20260509074003 20 322 1.6 4.8 0.56 0.56 0.56 85 1010.3
20260509073524 20 304 1.6 6.4 0.56 0.56 0.56 85 1010.1
20260509073003 20 116 3.2 14.5 0.56 0.56 0.56 85 1010.3
20260509072503 20 106 4.8 14.5 0.51 0.51 0.51 85 1009.8
20260509072003 20 343 3.2 8.0 0.03 0.03 0.03 85 1011.1
20260509071503 20 350 3.2 8.0 0.00 0.00 0.00 85 1011.3
20260509071003 20 360 1.6 4.8 0.00 0.00 0.00 85 1011.2
20260509070503 20 360 0.0 1.6 0.00 0.00 0.00 84 1011.1
20260509070003 20 0 0.0 0.0 0.00 0.00 0.00 84 1011.3
20260509065503 20 360 0.0 1.6 0.00 0.00 0.00 84 1011.6
20260509065003 20 360 0.0 1.6 0.00 0.00 0.00 84 1011.5
20260509064503 20 360 0.0 4.8 0.00 0.00 0.00 84 1011.7
20260509064024 20 356 1.6 4.8 0.00 0.00 0.00 84 1011.7
20260509063524 20 340 1.6 6.4 0.00 0.00 0.00 84 1011.8
20260509063024 20 312 3.2 6.4 0.00 0.00 0.00 84 1011.9
20260509062504 20 278 1.6 4.8 0.00 0.00 0.00 84 1011.8
20260509062003 20 227 0.0 3.2 0.00 0.00 0.00 84 1011.8
20260509061504 20 227 0.0 1.6 0.00 0.00 0.00 84 1011.7
20260509061025 20 227 0.0 1.6 0.00 0.00 0.00 84 1011.8
20260509060503 20 0 0.0 0.0 0.00 0.00 0.00 84 1011.8
20260509060004 20 227 0.0 1.6 0.00 0.00 0.00 84 1011.8
20260509055503 20 227 0.0 3.2 0.00 0.00 0.00 83 1011.8
20260509055003 20 174 0.0 4.8 0.00 0.00 0.00 83 1011.5
20260509054503 20 190 1.6 4.8 0.00 0.00 0.00 83 1011.4
20260509054003 20 210 3.2 9.7 0.00 0.00 0.00 83 1011.3
20260509053503 20 211 1.6 9.7 0.00 0.00 0.00 83 1011.5
20260509053003 20 198 1.6 6.4 0.00 0.00 0.00 83 1011.3
20260509052503 20 190 3.2 9.7 0.00 0.00 0.00 83 1011.4
20260509052024 20 190 1.6 9.7 0.00 0.00 0.00 83 1011.4
20260509051503 20 184 0.0 3.2 0.00 0.00 0.00 83 1011.6
20260509051003 20 198 1.6 9.7 0.00 0.00 0.00 83 1011.6
20260509050503 20 195 3.2 9.7 0.00 0.00 0.00 83 1011.6
20260509050003 20 191 1.6 6.4 0.00 0.00 0.00 82 1011.8
20260509045524 20 196 1.6 6.4 0.00 0.00 0.00 82 1011.8
20260509045003 20 196 3.2 8.0 0.00 0.00 0.00 82 1011.9
20260509044504 20 209 3.2 11.3 0.00 0.00 0.00 82 1011.9
20260509044003 20 210 4.8 11.3 0.00 0.00 0.00 82 1011.9